Location: Casco Millpond
(44.5581°N, 87.6111°W)
Time: 22:22:02
(UTC+00:00)

Cosmos 1633 Rocket - Pass Details

Date: 16 January 2026
Orbit: 600 x 616 km, 82.5° (Epoch: 13 February)

Event Time Altitude Azimuth Distance (km) Brightness Sun altitude
Rises 12:20:14 0° 191° (S) 2,857 6.6 -11.1°
Reaches altitude 10° 12:22:27 10° 192° (SSW) 1,955 5.7 -10.7°
Maximum altitude 12:26:46 77° 279° (W) 629 2.9 -10.0°
Drops below altitude 10° 12:31:07 10° 6° (N) 1,961 5.5 -9.2°
Sets 12:33:20 0° 8° (N) 2,867 6.3 -8.9°
